Minneapolis Crystal, MN

8:52 AM CDT on May 28, 2017 (GMT -0500)
Crystal

Weather History for KMIC - December, 2012

Change the Weather History Date:

Friday, December 21, 2012

  Actual Average Record
Temperature  
Mean Temperature 12 °F -  
Max Temperature 17 °F 24 °F 40 °F (1991)
Min Temperature 6 °F 9 °F -11 °F (1999)
Degree Days  
Heating Degree Days 54    
Moisture  
Dew Point 4 °F    
Average Humidity 73    
Maximum Humidity 80    
Minimum Humidity 62    
Precipitation  
Precipitation 0.00 in - - ()
Sea Level Pressure  
Sea Level Pressure 30.25 in    
Wind  
Wind Speed 8 mph (WNW)    
Max Wind Speed 13 mph    
Max Gust Speed -    
Visibility 10 miles    
Events      
Averages and records for this station are not official NWS values.
T = Trace of Precipitation, MM = Missing Value Source: NWS Daily Summary

Daily Weather History Graph

Daily Weather History Graph

Search for Another Location

Airport or City:

Trip Planner

Search our weather history database for the weather conditions in past years. The results will help you decide how hot, cold, wet, or windy it might be!

Date:

Astronomy

Dec. 21, 2012 Rise Set
Actual Time 7:49 AM CST 4:34 PM CST
Civil Twilight 7:15 AM CST 5:08 PM CST
Nautical Twilight 6:37 AM CST 5:45 PM CST
Astronomical Twilight 6:01 AM CST 6:21 PM CST
Moon 12:32 PM CST (12/21) 1:25 AM CST (12/21)
Length of Visible Light 9h 53m
Length of Day
8h 45m
Waxing Gibbous, 65% of the Moon is Illuminated
Dec 21
Waxing Gibbous
Dec 28
Full
Jan 4
Last Quarter
Jan 11
New
Jan 18
First Quarter

Hourly Weather History & Observations

Time (CST) Temp. Windchill Dew Point Humidity Pressure Visibility Wind Dir Wind Speed Gust Speed Precip Events Conditions
12:53 AM 10.9 °F -3.4 °F 3.9 °F 73% 30.12 in 10.0 mi NW 11.5 mph - N/A   Clear
1:53 AM 10.0 °F -3.7 °F 3.9 °F 76% 30.14 in 10.0 mi NW 10.4 mph - N/A   Clear
2:53 AM 9.0 °F -6.6 °F 3.0 °F 77% 30.17 in 10.0 mi NW 12.7 mph - N/A   Clear
3:53 AM 9.0 °F -4.2 °F 3.0 °F 77% 30.18 in 10.0 mi NW 9.2 mph - N/A   Clear
4:53 AM 8.1 °F -5.3 °F 3.0 °F 80% 30.20 in 10.0 mi NW 9.2 mph - N/A   Clear
5:53 AM 7.0 °F -6.6 °F 1.9 °F 80% 30.22 in 10.0 mi NW 9.2 mph - N/A   Clear
6:53 AM 7.0 °F -8.3 °F 1.9 °F 80% 30.25 in 10.0 mi NW 11.5 mph - N/A   Clear
7:53 AM 6.1 °F -6.8 °F 1.0 °F 80% 30.28 in 10.0 mi WNW 8.1 mph - N/A   Clear
8:53 AM 8.1 °F -3.2 °F 1.9 °F 76% 30.30 in 10.0 mi NNW 6.9 mph - N/A   Clear
9:53 AM 10.0 °F -1.9 °F 1.9 °F 70% 30.31 in 10.0 mi NW 8.1 mph - N/A   Clear
10:53 AM 12.0 °F 1.5 °F 3.9 °F 70% 30.30 in 10.0 mi NW 6.9 mph - N/A   Clear
11:53 AM 12.9 °F 1.6 °F 3.9 °F 67% 30.30 in 10.0 mi West 8.1 mph - N/A   Clear
12:53 PM 14.0 °F 3.9 °F 5.0 °F 67% 30.29 in 10.0 mi WNW 6.9 mph - N/A   Clear
1:53 PM 17.1 °F 11.7 °F 6.1 °F 62% 30.26 in 10.0 mi NW 3.5 mph - N/A   Clear
2:53 PM 17.1 °F 8.7 °F 7.0 °F 65% 30.27 in 10.0 mi WNW 5.8 mph - N/A   Clear
3:53 PM 17.1 °F 7.6 °F 6.1 °F 62% 30.28 in 10.0 mi West 6.9 mph - N/A   Clear
4:53 PM 16.0 °F 10.4 °F 6.1 °F 65% 30.28 in 10.0 mi NW 3.5 mph - N/A   Clear
5:53 PM 12.9 °F - 5.0 °F 71% 30.29 in 10.0 mi Calm Calm - N/A   Clear
6:53 PM 12.9 °F 5.2 °F 5.0 °F 71% 30.30 in 10.0 mi West 4.6 mph - N/A   Clear
7:53 PM 12.0 °F - 3.9 °F 70% 30.29 in 10.0 mi Calm Calm - N/A   Clear
8:53 PM 10.9 °F - 5.0 °F 77% 30.26 in 10.0 mi Calm Calm - N/A   Clear
9:53 PM 10.9 °F 4.7 °F 5.0 °F 77% 30.25 in 10.0 mi South 3.5 mph - N/A   Clear
10:53 PM 10.0 °F 3.6 °F 5.0 °F 80% 30.25 in 10.0 mi South 3.5 mph - N/A   Clear
11:53 PM 9.0 °F 2.4 °F 3.9 °F 80% 30.23 in 9.0 mi South 3.5 mph - N/A   Clear